Find Starlink 34312

NORAD ID: 64711 Int'l Des: 2025-142 Owner: SPXS Country: US Constellation: starlink operational
LEOCIRCULAR

現在のビュー

3D地球を読み込み中...

About Starlink 34312

Starlink 34312 (NORAD 64711) is a starlink constellation satellite (v2 mini) launched Jun 28, 2025 by SPXS of US. It operates in LEO, CIRCULAR orbit with a mass of 575.00 kg.

Starlink 34312について

説明を読み込み中...

次回通過

Passes for default location (London). Set your location on the main map for personalized predictions.

高度履歴

Loading altitude history...

軌道要素

1 64711U 25142R 26195.81699088 .00001867 00000-0 16416-3 0 9998
2 64711 70.0021 353.8975 0002987 265.1659 94.9159 14.98335265 58692
Epoch: Jul 14, 2026 • Age: 9 hours

現在のステータス

高度 592.5 km
遠地点 / 近地点 N/A
速度 7.56 km/s
衛星直下点 -59.32°S, 51.64°W
打ち上げ日 Jun 28, 2025
運用期間 1 year
タイプ internet

技術仕様

分類 Payload
質量 575.00 kg
乾燥質量 530.00 kg
総質量 575.00 kg
長さ 0.30 m
直径 4.10 m
スパン 29.00 m
形状 Box + pan
製造者 SPXS
バスタイプ Starlink V2MO
フェーズステータス In Orbit
所有者/国 SPXS/US

Most Searched